Location: Goheenville
(40.9070°N, 79.3720°W)
Time: 14:11:29
(UTC-05:00)

Meteor 2-10 Rocket - Visible Passes

Search period start: 31 January 2015 00:00
Search period end: 10 February 2015 00:00
Orbit: 734 x 886 km, 81.2° (Epoch: 31 January)

Date Brightness Start Highest point End Pass type
(mag) Time Alt. Az. Time Alt. Az. Time Alt. Az.
31 Jan 5.1 19:47:21 10° N 19:49:12 22° N 19:49:12 22° N visible
01 Feb 4.5 19:23:21 10° N 19:26:28 30° NE 19:26:28 30° NE visible
01 Feb 5.9 21:05:51 10° NW 21:07:43 18° NW 21:07:43 18° NW visible
02 Feb 4.4 18:59:27 10° NNE 19:03:57 28° ENE 19:04:13 28° ENE visible
02 Feb 5.0 20:41:16 10° NNW 20:45:31 34° WNW 20:45:31 34° WNW visible
03 Feb 4.8 18:35:44 10° NNE 18:39:36 21° ENE 18:43:15 12° ESE visible
03 Feb 4.4 20:16:50 10° NNW 20:22:00 50° W 20:24:45 27° SSW visible
04 Feb 5.1 18:12:18 10° NNE 18:15:11 15° ENE 18:18:22 10° E visible
04 Feb 3.8 19:52:32 10° NNW 19:57:52 71° W 20:03:25 10° S visible
05 Feb 3.5 19:28:19 10° N 19:33:43 84° E 19:39:20 10° S visible
05 Feb 6.6 21:13:20 10° WNW 21:15:12 11° W 21:16:44 10° WSW visible
06 Feb 3.6 19:04:11 10° N 19:09:31 60° ENE 19:15:04 10° SSE visible
06 Feb 6.3 20:47:43 10° NW 20:51:11 17° W 20:54:28 10° SW visible
07 Feb 4.0 18:40:09 10° N 18:45:17 43° ENE 18:50:37 10° SSE visible
07 Feb 5.9 20:22:50 10° NW 20:27:08 24° W 20:31:25 10° SW visible
08 Feb 4.4 18:16:13 10° N 18:20:59 31° ENE 18:25:59 10° SE visible
08 Feb 5.3 19:58:13 10° NNW 20:03:05 33° W 20:08:00 10° SSW visible
09 Feb 4.8 19:33:46 10° NNW 19:38:59 46° W 19:44:20 10° SSW visible
